| time (UTC) | temp F | wind direction | speed MPH | gust MPH | rain 1hr in | rain 24hr in | rain mn in | humidity % | barometer mb |
| 20260508152851 | 66 | 76 | 2.0 | 4.0 | 0.00 | 0.00 | 0.00 | 1 | 1013.1 |
| 20260508152351 | 65 | 78 | 1.0 | 4.0 | 0.00 | 0.00 | 0.00 | 1 | 1013.0 |
| 20260508151851 | 65 | 69 | 1.0 | 3.0 | 0.00 | 0.00 | 0.00 | 1 | 1013.2 |
| 20260508151847 | 65 | 69 | 1.0 | 3.0 | 0.00 | 0.00 | 0.00 | 1 | 1013.1 |
| 20260508150849 | 64 | 75 | 1.0 | 3.0 | 0.00 | 0.00 | 0.00 | 1 | 1013.2 |
| 20260508150845 | 64 | 69 | 1.0 | 3.0 | 0.00 | 0.00 | 0.00 | 1 | 1013.2 |
| 20260508145842 | 64 | 85 | 1.0 | 3.0 | 0.00 | 0.00 | 0.00 | 1 | 1013.3 |
| 20260508145339 | 64 | 142 | 1.0 | 3.0 | 0.00 | 0.00 | 0.00 | 1 | 1013.4 |
| 20260508144837 | 64 | 166 | 1.0 | 4.0 | 0.00 | 0.00 | 0.00 | 1 | 1013.4 |
| 20260508144337 | 63 | 166 | 1.0 | 4.0 | 0.00 | 0.00 | 0.00 | 1 | 1013.6 |
| 20260508143836 | 63 | 166 | 0.0 | 3.0 | 0.00 | 0.00 | 0.00 | 1 | 1013.7 |
| 20260508143335 | 63 | 166 | 0.0 | 0.0 | 0.00 | 0.00 | 0.00 | 1 | 1013.9 |
| 20260508142835 | 63 | 166 | 0.0 | 1.0 | 0.00 | 0.00 | 0.00 | 1 | 1013.7 |
| 20260508142333 | 63 | 166 | 0.0 | 1.0 | 0.00 | 0.00 | 0.00 | 1 | 1013.9 |
| 20260508141833 | 63 | 166 | 1.0 | 3.0 | 0.00 | 0.00 | 0.00 | 1 | 1013.9 |
| 20260508141331 | 63 | 166 | 1.0 | 3.0 | 0.00 | 0.00 | 0.00 | 1 | 1013.7 |
| 20260508140830 | 62 | 166 | 0.0 | 1.0 | 0.00 | 0.00 | 0.00 | 1 | 1013.7 |
| 20260508140329 | 62 | 166 | 0.0 | 1.0 | 0.00 | 0.00 | 0.00 | 1 | 1013.9 |
| 20260508135829 | 62 | 166 | 0.0 | 0.0 | 0.00 | 0.00 | 0.00 | 1 | 1013.7 |
| 20260508135329 | 62 | 166 | 0.0 | 0.0 | 0.00 | 0.00 | 0.00 | 1 | 1013.6 |
| 20260508134827 | 62 | 166 | 0.0 | 0.0 | 0.00 | 0.00 | 0.00 | 1 | 1013.7 |
| 20260508134327 | 62 | 166 | 0.0 | 0.0 | 0.00 | 0.00 | 0.00 | 1 | 1013.9 |
| 20260508133827 | 62 | 166 | 0.0 | 0.0 | 0.00 | 0.00 | 0.00 | 1 | 1014.0 |
| 20260508133325 | 61 | 166 | 0.0 | 0.0 | 0.00 | 0.00 | 0.00 | 1 | 1014.1 |
| 20260508132823 | 61 | 166 | 0.0 | 1.0 | 0.00 | 0.00 | 0.00 | 1 | 1014.2 |
| 20260508132323 | 61 | 166 | 0.0 | 1.0 | 0.00 | 0.00 | 0.00 | 1 | 1014.2 |
| 20260508131821 | 61 | 166 | 0.0 | 3.0 | 0.00 | 0.00 | 0.00 | 1 | 1014.2 |
| 20260508131321 | 61 | 166 | 0.0 | 3.0 | 0.00 | 0.00 | 0.00 | 1 | 1014.1 |
| 20260508130821 | 61 | 166 | 0.0 | 1.0 | 0.00 | 0.00 | 0.00 | 1 | 1014.1 |
| 20260508130321 | 61 | 166 | 0.0 | 1.0 | 0.00 | 0.00 | 0.00 | 1 | 1014.0 |
| 20260508125820 | 61 | 166 | 0.0 | 1.0 | 0.00 | 0.00 | 0.00 | 1 | 1013.9 |
| 20260508125321 | 61 | 166 | 0.0 | 1.0 | 0.00 | 0.00 | 0.00 | 1 | 1013.9 |
| 20260508124819 | 61 | 166 | 1.0 | 5.0 | 0.00 | 0.00 | 0.00 | 1 | 1013.7 |
| 20260508124318 | 61 | 166 | 1.0 | 5.0 | 0.00 | 0.00 | 0.00 | 1 | 1013.6 |
| 20260508123821 | 60 | 166 | 1.0 | 4.0 | 0.00 | 0.00 | 0.00 | 1 | 1013.5 |
| 20260508123817 | 60 | 166 | 1.0 | 4.0 | 0.00 | 0.00 | 0.00 | 1 | 1013.5 |
| 20260508122817 | 60 | 166 | 0.0 | 3.0 | 0.00 | 0.00 | 0.00 | 1 | 1013.5 |
| 20260508122315 | 60 | 166 | 0.0 | 3.0 | 0.00 | 0.00 | 0.00 | 1 | 1013.4 |
| 20260508121815 | 60 | 166 | 0.0 | 3.0 | 0.00 | 0.00 | 0.00 | 1 | 1013.5 |
| 20260508121315 | 60 | 166 | 0.0 | 3.0 | 0.00 | 0.00 | 0.00 | 1 | 1013.7 |
| 20260508120812 | 60 | 166 | 0.0 | 0.0 | 0.00 | 0.00 | 0.00 | 1 | 1013.5 |
| 20260508120310 | 60 | 166 | 0.0 | 0.0 | 0.00 | 0.00 | 0.00 | 1 | 1013.6 |
| 20260508115811 | 60 | 166 | 0.0 | 0.0 | 0.00 | 0.00 | 0.00 | 1 | 1013.7 |
| 20260508115311 | 60 | 166 | 0.0 | 0.0 | 0.00 | 0.00 | 0.00 | 1 | 1014.0 |
| 20260508114811 | 60 | 166 | 0.0 | 0.0 | 0.00 | 0.00 | 0.00 | 1 | 1013.9 |
| 20260508114311 | 60 | 166 | 0.0 | 0.0 | 0.00 | 0.00 | 0.00 | 1 | 1014.1 |
| 20260508113810 | 60 | 166 | 0.0 | 0.0 | 0.00 | 0.00 | 0.00 | 1 | 1014.1 |
| 20260508113308 | 60 | 166 | 0.0 | 3.0 | 0.00 | 0.00 | 0.00 | 1 | 1014.0 |
| 20260508112807 | 60 | 166 | 0.0 | 3.0 | 0.00 | 0.00 | 0.00 | 1 | 1014.0 |
| 20260508112307 | 60 | 166 | 0.0 | 1.0 | 0.00 | 0.00 | 0.00 | 1 | 1013.9 |
| 20260508111805 | 60 | 166 | 0.0 | 1.0 | 0.00 | 0.00 | 0.00 | 1 | 1014.0 |
| 20260508111302 | 60 | 166 | 0.0 | 1.0 | 0.00 | 0.00 | 0.00 | 1 | 1013.9 |
| 20260508110802 | 60 | 166 | 0.0 | 0.0 | 0.00 | 0.00 | 0.00 | 1 | 1013.9 |
| 20260508110302 | 60 | 166 | 0.0 | 1.0 | 0.00 | 0.00 | 0.00 | 1 | 1013.7 |
| 20260508105804 | 60 | 166 | 0.0 | 1.0 | 0.00 | 0.00 | 0.00 | 1 | 1013.7 |
| 20260508105800 | 60 | 166 | 0.0 | 3.0 | 0.00 | 0.00 | 0.00 | 1 | 1013.9 |
| 20260508104759 | 60 | 166 | 0.0 | 3.0 | 0.00 | 0.00 | 0.00 | 1 | 1013.9 |
| 20260508104258 | 60 | 179 | 1.0 | 3.0 | 0.00 | 0.00 | 0.00 | 1 | 1013.9 |
| 20260508103758 | 60 | 169 | 0.0 | 2.0 | 0.00 | 0.00 | 0.00 | 1 | 1014.0 |
| 20260508103258 | 60 | 169 | 0.0 | 2.0 | 0.00 | 0.00 | 0.00 | 1 | 1014.2 |
| 20260508102758 | 60 | 169 | 0.0 | 1.0 | 0.00 | 0.00 | 0.00 | 1 | 1014.1 |
| 20260508102258 | 60 | 169 | 0.0 | 1.0 | 0.00 | 0.00 | 0.00 | 1 | 1014.0 |
| 20260508101758 | 60 | 169 | 0.0 | 1.0 | 0.00 | 0.00 | 0.00 | 1 | 1014.3 |
| 20260508101258 | 60 | 169 | 0.0 | 1.0 | 0.00 | 0.00 | 0.00 | 1 | 1014.5 |
| 20260508100755 | 60 | 169 | 0.0 | 1.0 | 0.00 | 0.00 | 0.00 | 1 | 1014.4 |
| 20260508100257 | 60 | 169 | 0.0 | 0.0 | 0.00 | 0.00 | 0.00 | 1 | 1014.7 |
| 20260508100252 | 60 | 169 | 0.0 | 1.0 | 0.00 | 0.00 | 0.00 | 1 | 1014.6 |
| 20260508095253 | 59 | 169 | 0.0 | 0.0 | 0.00 | 0.00 | 0.00 | 1 | 1014.8 |
| 20260508094754 | 59 | 169 | 0.0 | 0.0 | 0.00 | 0.00 | 0.00 | 1 | 1015.0 |
| 20260508094258 | 59 | 169 | 0.0 | 0.0 | 0.00 | 0.00 | 0.00 | 1 | 1015.1 |
| 20260508094254 | 59 | 169 | 0.0 | 0.0 | 0.00 | 0.00 | 0.00 | 1 | 1015.1 |
| 20260508093253 | 59 | 169 | 0.0 | 0.0 | 0.00 | 0.00 | 0.00 | 1 | 1015.0 |
| 20260508092756 | 59 | 169 | 0.0 | 0.0 | 0.00 | 0.00 | 0.00 | 1 | 1015.0 |
| 20260508092752 | 59 | 169 | 0.0 | 0.0 | 0.00 | 0.00 | 0.00 | 1 | 1014.9 |
| 20260508091755 | 59 | 170 | 0.0 | 0.0 | 0.00 | 0.00 | 0.00 | 1 | 1014.9 |
| 20260508091751 | 59 | 169 | 0.0 | 0.0 | 0.00 | 0.00 | 0.00 | 1 | 1014.8 |
| 20260508090749 | 59 | 169 | 0.0 | 0.0 | 0.00 | 0.00 | 0.00 | 1 | 1014.8 |
| 20260508090248 | 59 | 170 | 0.0 | 0.0 | 0.00 | 0.00 | 0.00 | 1 | 1014.8 |
| 20260508085751 | 58 | 169 | 0.0 | 0.0 | 0.00 | 0.00 | 0.00 | 1 | 1014.7 |
| 20260508085747 | 58 | 170 | 0.0 | 0.0 | 0.00 | 0.00 | 0.00 | 1 | 1014.5 |
| 20260508084746 | 58 | 169 | 0.0 | 0.0 | 0.00 | 0.00 | 0.00 | 1 | 1014.4 |
| 20260508084247 | 58 | 170 | 0.0 | 0.0 | 0.00 | 0.00 | 0.00 | 1 | 1014.4 |
| 20260508083746 | 58 | 170 | 0.0 | 0.0 | 0.00 | 0.00 | 0.00 | 1 | 1014.3 |
| 20260508083246 | 58 | 169 | 0.0 | 0.0 | 0.00 | 0.00 | 0.00 | 1 | 1014.1 |
| 20260508082747 | 58 | 169 | 0.0 | 0.0 | 0.00 | 0.00 | 0.00 | 1 | 1013.9 |
| 20260508082743 | 58 | 169 | 0.0 | 0.0 | 0.00 | 0.00 | 0.00 | 1 | 1014.0 |
| 20260508081742 | 58 | 169 | 0.0 | 0.0 | 0.00 | 0.00 | 0.00 | 1 | 1013.9 |
| 20260508081242 | 58 | 170 | 0.0 | 0.0 | 0.00 | 0.00 | 0.00 | 1 | 1013.9 |
| 20260508080743 | 58 | 169 | 0.0 | 0.0 | 0.00 | 0.00 | 0.00 | 1 | 1014.1 |
| 20260508080240 | 58 | 170 | 0.0 | 0.0 | 0.00 | 0.00 | 0.00 | 1 | 1014.2 |
| 20260508075741 | 58 | 170 | 0.0 | 1.0 | 0.00 | 0.00 | 0.00 | 1 | 1014.1 |
| 20260508075737 | 58 | 170 | 0.0 | 1.0 | 0.00 | 0.00 | 0.00 | 1 | 1014.2 |
| 20260508074736 | 58 | 170 | 0.0 | 0.0 | 0.00 | 0.00 | 0.00 | 1 | 1014.3 |
| 20260508074235 | 58 | 170 | 0.0 | 0.0 | 0.00 | 0.00 | 0.00 | 1 | 1014.4 |
| 20260508073735 | 58 | 170 | 0.0 | 0.0 | 0.00 | 0.00 | 0.00 | 1 | 1014.5 |
| 20260508073232 | 58 | 169 | 0.0 | 0.0 | 0.00 | 0.00 | 0.00 | 1 | 1014.6 |
| 20260508072732 | 58 | 170 | 0.0 | 0.0 | 0.00 | 0.00 | 0.00 | 1 | 1014.8 |
| 20260508072230 | 58 | 169 | 0.0 | 0.0 | 0.00 | 0.00 | 0.00 | 1 | 1014.7 |
| 20260508071730 | 58 | 169 | 0.0 | 0.0 | 0.00 | 0.00 | 0.00 | 1 | 1014.6 |
| 20260508071230 | 58 | 170 | 0.0 | 0.0 | 0.00 | 0.00 | 0.00 | 1 | 1014.7 |
| 20260508070730 | 58 | 170 | 0.0 | 0.0 | 0.00 | 0.00 | 0.00 | 1 | 1014.5 |
| 20260508070228 | 58 | 170 | 0.0 | 0.0 | 0.00 | 0.00 | 0.00 | 1 | 1014.6 |
| 20260508065726 | 58 | 170 | 0.0 | 0.0 | 0.00 | 0.00 | 0.00 | 1 | 1014.7 |
| 20260508065226 | 58 | 170 | 0.0 | 0.0 | 0.00 | 0.00 | 0.00 | 1 | 1014.7 |
| 20260508064730 | 58 | 170 | 0.0 | 0.0 | 0.00 | 0.00 | 0.00 | 1 | 1014.9 |
| 20260508064726 | 58 | 170 | 0.0 | 0.0 | 0.00 | 0.00 | 0.00 | 1 | 1014.7 |
| 20260508063730 | 58 | 170 | 0.0 | 0.0 | 0.00 | 0.00 | 0.00 | 1 | 1014.9 |
| 20260508063726 | 58 | 170 | 0.0 | 0.0 | 0.00 | 0.00 | 0.00 | 1 | 1014.9 |
| 20260508062724 | 58 | 170 | 0.0 | 0.0 | 0.00 | 0.00 | 0.00 | 1 | 1015.0 |
| 20260508062227 | 58 | 170 | 0.0 | 0.0 | 0.00 | 0.00 | 0.00 | 1 | 1015.0 |
| 20260508062222 | 58 | 170 | 0.0 | 0.0 | 0.00 | 0.00 | 0.00 | 1 | 1015.0 |
| 20260508061223 | 58 | 170 | 0.0 | 0.0 | 0.00 | 0.00 | 0.00 | 1 | 1015.1 |
| 20260508060722 | 58 | 170 | 0.0 | 0.0 | 0.00 | 0.00 | 0.00 | 1 | 1014.9 |
| 20260508060222 | 59 | 170 | 0.0 | 0.0 | 0.00 | 0.00 | 0.00 | 1 | 1014.8 |
| 20260508055722 | 59 | 170 | 0.0 | 0.0 | 0.00 | 0.00 | 0.00 | 1 | 1014.8 |
| 20260508055221 | 59 | 170 | 0.0 | 0.0 | 0.00 | 0.00 | 0.00 | 1 | 1014.8 |
| 20260508054719 | 59 | 170 | 0.0 | 0.0 | 0.00 | 0.00 | 0.00 | 1 | 1014.8 |
| 20260508054219 | 59 | 170 | 0.0 | 0.0 | 0.00 | 0.00 | 0.00 | 1 | 1014.8 |
| 20260508053723 | 59 | 170 | 0.0 | 0.0 | 0.00 | 0.00 | 0.00 | 1 | 1014.9 |
| 20260508053719 | 59 | 170 | 0.0 | 0.0 | 0.00 | 0.00 | 0.00 | 1 | 1014.8 |
| 20260508053323 | 59 | 170 | 0.0 | 0.0 | 0.00 | 0.00 | 0.00 | 1 | 1014.9 |
| 20260508052216 | 59 | 170 | 0.0 | 0.0 | 0.00 | 0.00 | 0.00 | 1 | 1015.1 |
| 20260508051715 | 59 | 170 | 0.0 | 0.0 | 0.00 | 0.00 | 0.00 | 1 | 1015.2 |
| 20260508051215 | 59 | 170 | 0.0 | 0.0 | 0.00 | 0.00 | 0.00 | 1 | 1015.3 |
| 20260508050716 | 59 | 170 | 0.0 | 0.0 | 0.00 | 0.00 | 0.00 | 1 | 1015.4 |
| 20260508050212 | 59 | 170 | 0.0 | 0.0 | 0.00 | 0.00 | 0.00 | 1 | 1015.5 |
| 20260508045711 | 59 | 170 | 0.0 | 0.0 | 0.00 | 0.00 | 0.00 | 1 | 1015.6 |
| 20260508045211 | 59 | 170 | 0.0 | 0.0 | 0.00 | 0.00 | 0.00 | 1 | 1015.5 |
| 20260508044711 | 59 | 170 | 0.0 | 0.0 | 0.00 | 0.00 | 0.00 | 1 | 1015.5 |
| 20260508044213 | 59 | 170 | 0.0 | 0.0 | 0.00 | 0.00 | 0.00 | 1 | 1015.4 |
| 20260508043712 | 60 | 170 | 0.0 | 0.0 | 0.00 | 0.00 | 0.00 | 1 | 1015.3 |
| 20260508043212 | 60 | 170 | 0.0 | 0.0 | 0.00 | 0.00 | 0.00 | 1 | 1015.2 |
| 20260508042715 | 60 | 170 | 0.0 | 0.0 | 0.00 | 0.00 | 0.00 | 1 | 1015.4 |
| 20260508042711 | 60 | 170 | 0.0 | 0.0 | 0.00 | 0.00 | 0.00 | 1 | 1015.2 |
| 20260508041708 | 60 | 170 | 0.0 | 0.0 | 0.00 | 0.00 | 0.00 | 1 | 1015.3 |
| 20260508041206 | 60 | 170 | 0.0 | 0.0 | 0.00 | 0.00 | 0.00 | 1 | 1015.4 |
| 20260508040704 | 60 | 170 | 0.0 | 0.0 | 0.00 | 0.00 | 0.00 | 1 | 1015.4 |
| 20260508040204 | 60 | 170 | 0.0 | 0.0 | 0.00 | 0.00 | 0.00 | 1 | 1015.3 |
| 20260508035703 | 60 | 170 | 0.0 | 0.0 | 0.00 | 0.00 | 0.00 | 1 | 1015.4 |
| 20260508035201 | 61 | 170 | 0.0 | 0.0 | 0.00 | 0.00 | 0.00 | 1 | 1015.5 |
| 20260508034703 | 61 | 170 | 0.0 | 0.0 | 0.00 | 0.00 | 0.00 | 1 | 1015.5 |
| 20260508034159 | 61 | 170 | 0.0 | 0.0 | 0.00 | 0.00 | 0.00 | 1 | 1015.6 |
| 20260508033659 | 61 | 170 | 0.0 | 0.0 | 0.00 | 0.00 | 0.00 | 1 | 1015.4 |
| 20260508033200 | 61 | 170 | 0.0 | 0.0 | 0.00 | 0.00 | 0.00 | 1 | 1015.4 |
| 20260508032659 | 61 | 170 | 0.0 | 0.0 | 0.00 | 0.00 | 0.00 | 1 | 1015.2 |
| 20260508032158 | 61 | 170 | 0.0 | 0.0 | 0.00 | 0.00 | 0.00 | 1 | 1015.0 |
| 20260508031701 | 61 | 170 | 0.0 | 0.0 | 0.00 | 0.00 | 0.00 | 1 | 1014.8 |
| 20260508031657 | 61 | 170 | 0.0 | 0.0 | 0.00 | 0.00 | 0.00 | 1 | 1014.8 |
| 20260508030656 | 61 | 170 | 0.0 | 0.0 | 0.00 | 0.00 | 0.00 | 1 | 1014.8 |
| 20260508030159 | 61 | 170 | 0.0 | 0.0 | 0.00 | 0.00 | 0.00 | 1 | 1014.9 |
| 20260508030155 | 61 | 170 | 0.0 | 0.0 | 0.00 | 0.00 | 0.00 | 1 | 1014.9 |
| 20260508025155 | 61 | 169 | 0.0 | 0.0 | 0.00 | 0.00 | 0.00 | 1 | 1014.9 |
| 20260508024657 | 61 | 170 | 0.0 | 0.0 | 0.00 | 0.00 | 0.00 | 1 | 1014.6 |
| 20260508024156 | 61 | 170 | 0.0 | 0.0 | 0.00 | 0.00 | 0.00 | 1 | 1014.5 |
| 20260508023656 | 61 | 170 | 0.0 | 0.0 | 0.00 | 0.00 | 0.00 | 1 | 1014.4 |
| 20260508023155 | 61 | 170 | 0.0 | 0.0 | 0.00 | 0.00 | 0.00 | 1 | 1014.3 |
| 20260508022659 | 62 | 170 | 0.0 | 0.0 | 0.00 | 0.00 | 0.00 | 1 | 1014.7 |
| 20260508022655 | 62 | 170 | 0.0 | 0.0 | 0.00 | 0.00 | 0.00 | 1 | 1014.5 |
| 20260508021655 | 62 | 170 | 0.0 | 0.0 | 0.00 | 0.00 | 0.00 | 1 | 1014.7 |
| 20260508021200 | 62 | 170 | 0.0 | 0.0 | 0.00 | 0.00 | 0.00 | 1 | 1014.4 |
| 20260508021156 | 62 | 170 | 0.0 | 0.0 | 0.00 | 0.00 | 0.00 | 1 | 1014.4 |
| 20260508020154 | 62 | 169 | 0.0 | 0.0 | 0.00 | 0.00 | 0.00 | 1 | 1014.4 |
| 20260508015655 | 62 | 170 | 0.0 | 0.0 | 0.00 | 0.00 | 0.00 | 1 | 1014.6 |
| 20260508015155 | 62 | 169 | 0.0 | 0.0 | 0.00 | 0.00 | 0.00 | 1 | 1014.7 |
| 20260508014655 | 62 | 170 | 0.0 | 0.0 | 0.00 | 0.00 | 0.00 | 1 | 1014.4 |
| 20260508014200 | 62 | 169 | 0.0 | 0.0 | 0.00 | 0.00 | 0.00 | 1 | 1014.3 |
| 20260508014156 | 62 | 169 | 0.0 | 0.0 | 0.00 | 0.00 | 0.00 | 1 | 1014.3 |
| 20260508013156 | 62 | 169 | 0.0 | 0.0 | 0.00 | 0.00 | 0.00 | 1 | 1014.3 |
| 20260508012656 | 63 | 170 | 0.0 | 0.0 | 0.00 | 0.00 | 0.00 | 1 | 1014.3 |
| 20260508012155 | 63 | 169 | 0.0 | 0.0 | 0.00 | 0.00 | 0.00 | 1 | 1014.6 |
| 20260508011655 | 63 | 170 | 0.0 | 0.0 | 0.00 | 0.00 | 0.00 | 1 | 1014.6 |
| 20260508011155 | 63 | 169 | 0.0 | 0.0 | 0.00 | 0.00 | 0.00 | 1 | 1014.6 |
| 20260508010654 | 63 | 169 | 0.0 | 0.0 | 0.00 | 0.00 | 0.00 | 1 | 1014.6 |
| 20260508010153 | 63 | 170 | 0.0 | 0.0 | 0.00 | 0.00 | 0.00 | 1 | 1014.7 |
| 20260508005653 | 63 | 170 | 0.0 | 0.0 | 0.00 | 0.00 | 0.00 | 1 | 1014.9 |
| 20260508005152 | 64 | 169 | 0.0 | 0.0 | 0.00 | 0.00 | 0.00 | 1 | 1015.0 |
| 20260508004653 | 64 | 169 | 0.0 | 0.0 | 0.00 | 0.00 | 0.00 | 1 | 1015.0 |
| 20260508004153 | 64 | 169 | 0.0 | 0.0 | 0.00 | 0.00 | 0.00 | 1 | 1015.0 |
| 20260508003653 | 64 | 169 | 0.0 | 0.0 | 0.00 | 0.00 | 0.00 | 2 | 1015.2 |
| 20260508003153 | 64 | 169 | 0.0 | 1.0 | 0.00 | 0.00 | 0.00 | 4 | 1015.1 |
| 20260508002652 | 64 | 169 | 0.0 | 1.0 | 0.00 | 0.00 | 0.00 | 5 | 1015.3 |
| 20260508002153 | 64 | 110 | 0.0 | 0.0 | 0.00 | 0.00 | 0.00 | 6 | 1015.5 |
| 20260508001653 | 64 | 110 | 0.0 | 2.0 | 0.00 | 0.00 | 0.00 | 9 | 1015.2 |
| 20260508001154 | 65 | 110 | 0.0 | 2.0 | 0.00 | 0.00 | 0.00 | 11 | 1014.1 |
| 20260508000653 | 65 | 110 | 0.0 | 1.0 | 0.00 | 0.00 | 0.00 | 14 | 1014.4 |
| 20260508000153 | 65 | 110 | 0.0 | 1.0 | 0.00 | 0.00 | 0.00 | 15 | 1014.7 |
| 20260507235653 | 65 | 110 | 0.0 | 1.0 | 0.00 | 0.00 | 0.00 | 17 | 1014.8 |
| 20260507235152 | 65 | 110 | 0.0 | 2.0 | 0.00 | 0.00 | 0.00 | 18 | 1014.7 |
| 20260507234650 | 65 | 110 | 0.0 | 2.0 | 0.00 | 0.00 | 0.00 | 20 | 1014.4 |
| 20260507234150 | 65 | 110 | 0.0 | 2.0 | 0.00 | 0.00 | 0.00 | 20 | 1014.7 |
| 20260507233645 | 65 | 110 | 0.0 | 0.0 | 0.00 | 0.00 | 0.00 | 22 | 1014.7 |
| 20260507233145 | 65 | 110 | 0.0 | 0.0 | 0.00 | 0.00 | 0.00 | 24 | 1014.8 |
| 20260507232645 | 66 | 110 | 0.0 | 0.0 | 0.00 | 0.00 | 0.00 | 26 | 1015.3 |
| 20260507232147 | 66 | 110 | 0.0 | 0.0 | 0.00 | 0.00 | 0.00 | 27 | 1015.2 |
| 20260507232142 | 66 | 110 | 0.0 | 0.0 | 0.00 | 0.00 | 0.00 | 26 | 1015.2 |
| 20260507231746 | 66 | 110 | 0.0 | 0.0 | 0.00 | 0.00 | 0.00 | 27 | 1015.6 |
| 20260507231246 | 66 | 110 | 0.0 | 0.0 | 0.00 | 0.00 | 0.00 | 26 | 1015.7 |
| 20260507230139 | 66 | 110 | 0.0 | 2.0 | 0.00 | 0.00 | 0.00 | 27 | 1015.2 |
| 20260507225639 | 66 | 110 | 0.0 | 2.0 | 0.00 | 0.00 | 0.00 | 27 | 1015.2 |
| 20260507225138 | 66 | 147 | 0.0 | 1.0 | 0.00 | 0.00 | 0.00 | 27 | 1015.1 |
| 20260507224641 | 66 | 147 | 0.0 | 0.0 | 0.00 | 0.00 | 0.00 | 26 | 1015.7 |
| 20260507224637 | 66 | 147 | 0.0 | 0.0 | 0.00 | 0.00 | 0.00 | 26 | 1015.5 |
| 20260507223740 | 66 | 105 | 0.0 | 3.0 | 0.00 | 0.00 | 0.00 | 26 | 1015.0 |
| 20260507223639 | 66 | 147 | 0.0 | 1.0 | 0.00 | 0.00 | 0.00 | 27 | 1015.7 |
| 20260507223635 | 66 | 147 | 0.0 | 2.0 | 0.00 | 0.00 | 0.00 | 27 | 1015.7 |
| 20260507222135 | 66 | 105 | 0.0 | 3.0 | 0.00 | 0.00 | 0.00 | 25 | 1015.2 |
| 20260507221635 | 66 | 191 | 0.0 | 2.0 | 0.00 | 0.00 | 0.00 | 25 | 1015.4 |
| 20260507221133 | 65 | 191 | 0.0 | 2.0 | 0.00 | 0.00 | 0.00 | 25 | 1015.4 |
| 20260507220636 | 65 | 191 | 0.0 | 0.0 | 0.00 | 0.00 | 0.00 | 14 | 1016.2 |
| 20260507220632 | 65 | 191 | 0.0 | 1.0 | 0.00 | 0.00 | 0.00 | 20 | 1015.6 |
| 20260507220235 | 65 | 191 | 0.0 | 0.0 | 0.00 | 0.00 | 0.00 | 20 | 1015.9 |
| 20260507215129 | 65 | 191 | 0.0 | 1.0 | 0.00 | 0.00 | 0.00 | 16 | 1016.3 |
| 20260507214629 | 65 | 191 | 0.0 | 1.0 | 0.00 | 0.00 | 0.00 | 17 | 1016.4 |
| 20260507214128 | 65 | 191 | 0.0 | 1.0 | 0.00 | 0.00 | 0.00 | 17 | 1015.9 |
| 20260507213629 | 65 | 191 | 0.0 | 0.0 | 0.00 | 0.00 | 0.00 | 20 | 1015.9 |
| 20260507213132 | 66 | 191 | 0.0 | 0.0 | 0.00 | 0.00 | 0.00 | 24 | 1015.8 |
| 20260507213127 | 66 | 191 | 0.0 | 0.0 | 0.00 | 0.00 | 0.00 | 27 | 1016.7 |
| 20260507212127 | 66 | 191 | 0.0 | 1.0 | 0.00 | 0.00 | 0.00 | 31 | 1016.7 |
| 20260507211631 | 66 | 169 | 0.0 | 2.0 | 0.00 | 0.00 | 0.00 | 35 | 1016.2 |
| 20260507211626 | 66 | 191 | 0.0 | 1.0 | 0.00 | 0.00 | 0.00 | 35 | 1017.1 |
| 20260507210627 | 66 | 153 | 0.0 | 3.0 | 0.00 | 0.00 | 0.00 | 36 | 1016.4 |
| 20260507210127 | 66 | 72 | 0.0 | 3.0 | 0.00 | 0.00 | 0.00 | 36 | 1015.8 |
| 20260507205630 | 66 | 67 | 1.0 | 3.0 | 0.00 | 0.00 | 0.00 | 36 | 1015.4 |
| 20260507205626 | 66 | 67 | 0.0 | 3.0 | 0.00 | 0.00 | 0.00 | 36 | 1015.6 |
| 20260507204624 | 66 | 68 | 1.0 | 3.0 | 0.00 | 0.00 | 0.00 | 36 | 1015.4 |
| 20260507204123 | 67 | 53 | 0.0 | 1.0 | 0.00 | 0.00 | 0.00 | 36 | 1016.1 |
| 20260507203624 | 67 | 53 | 0.0 | 2.0 | 0.00 | 0.00 | 0.00 | 36 | 1016.4 |
| 20260507203124 | 67 | 57 | 0.0 | 2.0 | 0.00 | 0.00 | 0.00 | 37 | 1016.5 |
| 20260507202625 | 67 | 15 | 0.0 | 2.0 | 0.00 | 0.00 | 0.00 | 36 | 1016.5 |
| 20260507202124 | 67 | 42 | 0.0 | 2.0 | 0.00 | 0.00 | 0.00 | 36 | 1016.7 |
| 20260507201621 | 67 | 321 | 0.0 | 3.0 | 0.00 | 0.00 | 0.00 | 36 | 1016.7 |
| 20260507201120 | 67 | 79 | 1.0 | 3.0 | 0.00 | 0.00 | 0.00 | 35 | 1016.6 |
| 20260507200624 | 68 | 89 | 0.0 | 4.0 | 0.00 | 0.00 | 0.00 | 35 | 1017.0 |
| 20260507200620 | 67 | 87 | 1.0 | 4.0 | 0.00 | 0.00 | 0.00 | 35 | 1016.5 |
| 20260507200225 | 68 | 306 | 0.0 | 1.0 | 0.00 | 0.00 | 0.00 | 34 | 1017.0 |
| 20260507195120 | 67 | 333 | 0.0 | 1.0 | 0.00 | 0.00 | 0.00 | 34 | 1017.1 |
| 20260507194622 | 67 | 332 | 1.0 | 3.0 | 0.00 | 0.00 | 0.00 | 34 | 1016.6 |
| 20260507194618 | 67 | 26 | 0.0 | 2.0 | 0.00 | 0.00 | 0.00 | 34 | 1017.0 |
| 20260507193622 | 67 | 69 | 1.0 | 4.0 | 0.00 | 0.00 | 0.00 | 33 | 1016.6 |
| 20260507193618 | 67 | 64 | 1.0 | 4.0 | 0.00 | 0.00 | 0.00 | 34 | 1016.6 |
| 20260507192617 | 67 | 76 | 0.0 | 3.0 | 0.00 | 0.00 | 0.00 | 33 | 1016.8 |
| 20260507192113 | 66 | 331 | 0.0 | 2.0 | 0.00 | 0.00 | 0.00 | 32 | 1017.3 |
| 20260507191618 | 65 | 60 | 1.0 | 3.0 | 0.00 | 0.00 | 0.00 | 34 | 1017.3 |
| 20260507191614 | 65 | 331 | 0.0 | 2.0 | 0.00 | 0.00 | 0.00 | 34 | 1017.5 |
| 20260507190614 | 65 | 80 | 1.0 | 4.0 | 0.00 | 0.00 | 0.00 | 34 | 1017.4 |
| 20260507190114 | 66 | 75 | 0.0 | 4.0 | 0.00 | 0.00 | 0.00 | 33 | 1017.3 |
| 20260507185613 | 66 | 355 | 0.0 | 3.0 | 0.00 | 0.00 | 0.00 | 33 | 1017.5 |
| 20260507185115 | 66 | 35 | 0.0 | 3.0 | 0.00 | 0.00 | 0.00 | 33 | 1017.7 |
| 20260507185111 | 66 | 61 | 1.0 | 5.0 | 0.00 | 0.00 | 0.00 | 33 | 1017.9 |
| 20260507184715 | 66 | 33 | 1.0 | 5.0 | 0.00 | 0.00 | 0.00 | 33 | 1017.7 |
| 20260507183610 | 66 | 55 | 1.0 | 8.0 | 0.00 | 0.00 | 0.00 | 32 | 1017.7 |
| 20260507183110 | 66 | 41 | 1.0 | 8.0 | 0.00 | 0.00 | 0.00 | 31 | 1017.6 |
| 20260507182610 | 66 | 0 | 1.0 | 6.0 | 0.00 | 0.00 | 0.00 | 30 | 1017.3 |
| 20260507182109 | 65 | 60 | 1.0 | 6.0 | 0.00 | 0.00 | 0.00 | 31 | 1017.3 |
| 20260507181608 | 64 | 319 | 1.0 | 3.0 | 0.00 | 0.00 | 0.00 | 32 | 1017.4 |
| 20260507181108 | 64 | 333 | 1.0 | 3.0 | 0.00 | 0.00 | 0.00 | 31 | 1017.6 |
| 20260507180607 | 64 | 355 | 1.0 | 3.0 | 0.00 | 0.00 | 0.00 | 32 | 1017.4 |
| 20260507180108 | 64 | 31 | 1.0 | 6.0 | 0.00 | 0.00 | 0.00 | 32 | 1017.4 |
| 20260507175604 | 64 | 64 | 1.0 | 6.0 | 0.00 | 0.00 | 0.00 | 31 | 1017.4 |
| 20260507175104 | 64 | 69 | 1.0 | 2.0 | 0.00 | 0.00 | 0.00 | 31 | 1018.0 |
| 20260507174604 | 64 | 71 | 1.0 | 4.0 | 0.00 | 0.00 | 0.00 | 31 | 1018.2 |
| 20260507174103 | 64 | 61 | 1.0 | 4.0 | 0.00 | 0.00 | 0.00 | 31 | 1018.0 |
| 20260507173603 | 64 | 79 | 0.0 | 3.0 | 0.00 | 0.00 | 0.00 | 30 | 1018.6 |
| 20260507173102 | 64 | 79 | 0.0 | 3.0 | 0.00 | 0.00 | 0.00 | 30 | 1018.9 |
| 20260507172602 | 63 | 67 | 0.0 | 2.0 | 0.00 | 0.00 | 0.00 | 30 | 1018.8 |
| 20260507172100 | 63 | 26 | 0.0 | 2.0 | 0.00 | 0.00 | 0.00 | 30 | 1018.8 |
| 20260507171600 | 63 | 29 | 0.0 | 3.0 | 0.00 | 0.00 | 0.00 | 30 | 1019.0 |
| 20260507171104 | 62 | 62 | 0.0 | 3.0 | 0.00 | 0.00 | 0.00 | 31 | 1018.6 |
| 20260507171100 | 63 | 319 | 0.0 | 3.0 | 0.00 | 0.00 | 0.00 | 30 | 1019.2 |
| 20260507170059 | 62 | 70 | 1.0 | 3.0 | 0.00 | 0.00 | 0.00 | 31 | 1018.7 |
| 20260507165559 | 62 | 33 | 1.0 | 3.0 | 0.00 | 0.00 | 0.00 | 31 | 1018.5 |
| 20260507165100 | 62 | 64 | 1.0 | 2.0 | 0.00 | 0.00 | 0.00 | 31 | 1018.8 |
| 20260507164604 | 62 | 33 | 1.0 | 4.0 | 0.00 | 0.00 | 0.00 | 31 | 1018.6 |
| 20260507164559 | 62 | 17 | 1.0 | 4.0 | 0.00 | 0.00 | 0.00 | 31 | 1018.9 |
| 20260507163600 | 62 | 55 | 0.0 | 4.0 | 0.00 | 0.00 | 0.00 | 31 | 1018.2 |
| 20260507163100 | 62 | 319 | 1.0 | 4.0 | 0.00 | 0.00 | 0.00 | 30 | 1018.6 |
| 20260507162601 | 62 | 307 | 1.0 | 4.0 | 0.00 | 0.00 | 0.00 | 30 | 1018.8 |
| 20260507162059 | 62 | 79 | 1.0 | 4.0 | 0.00 | 0.00 | 0.00 | 30 | 1018.6 |
| 20260507161604 | 62 | 63 | 1.0 | 3.0 | 0.00 | 0.00 | 0.00 | 29 | 1018.3 |
| 20260507161600 | 62 | 24 | 1.0 | 3.0 | 0.00 | 0.00 | 0.00 | 29 | 1018.7 |
| 20260507160558 | 62 | 76 | 1.0 | 5.0 | 0.00 | 0.00 | 0.00 | 29 | 1018.5 |
| 20260507160057 | 62 | 10 | 2.0 | 5.0 | 0.00 | 0.00 | 0.00 | 29 | 1018.5 |
| 20260507155058 | 61 | 65 | 2.0 | 6.0 | 0.00 | 0.00 | 0.00 | 29 | 1018.3 |
| 20260507154558 | 61 | 94 | 2.0 | 8.0 | 0.00 | 0.00 | 0.00 | 28 | 1018.1 |
| 20260507154055 | 61 | 46 | 1.0 | 8.0 | 0.00 | 0.00 | 0.00 | 28 | 1018.0 |